Location: Unspecified
(0.0000°N, 0.0000°E)
Time: 08:14:19
(UTC+01:00)

Cosmos 1626 Rocket - Visible Passes

Search period start: 13 December 2017 00:00
Search period end: 23 December 2017 00:00
Orbit: 602 x 632 km, 82.5° (Epoch: 12 December)

Date Brightness Start Highest point End Pass type
(mag) Time Alt. Az. Time Alt. Az. Time Alt. Az.
13 Dec 4.0 20:49:24 10° S 20:53:13 60° SW 20:53:13 60° SW visible
14 Dec 5.2 21:06:40 10° SSW 21:10:31 30° W 21:10:44 29° W visible
15 Dec 4.8 19:46:17 10° SE 19:49:43 22° E 19:51:08 19° ENE visible
15 Dec 6.3 21:25:04 10° WSW 21:27:14 14° W 21:28:19 13° WNW visible
16 Dec 3.7 20:02:11 10° S 20:06:27 50° E 20:08:45 24° NNE visible
17 Dec 3.8 20:18:48 10° S 20:23:11 69° W 20:26:25 17° N visible
18 Dec 5.4 20:36:05 10° SSW 20:39:54 29° W 20:43:42 10° NNW visible
19 Dec 4.8 19:15:42 10° SE 19:19:06 22° E 19:22:29 10° NE visible
19 Dec 6.5 20:54:29 10° WSW 20:56:38 13° W 20:58:45 10° WNW visible
20 Dec 3.7 19:31:36 10° S 19:35:51 50° E 19:40:03 10° NNE visible
21 Dec 3.9 19:48:13 10° S 19:52:35 69° W 19:56:53 10° N visible
22 Dec 5.5 20:05:30 10° SSW 20:09:18 29° W 20:13:04 10° NNW visible
